GW3332 Weather Reports


Display with metric or nautical units.
time (UTC)temp
F
wind
direction
speed
MPH
gust
MPH
rain 1hr
in
rain 24hr
in
rain mn
in
humidity
%
barometer
mb
20260507140259 57 68 2.0 7.0 0.00 0.08 0.11 72 1011.0
20260507135748 57 225 3.0 8.0 0.00 0.08 0.11 71 1010.6
20260507135239 57 225 4.0 13.0 0.00 0.08 0.11 71 1010.8
20260507134728 57 225 4.0 13.0 0.00 0.08 0.11 71 1011.0
20260507133709 57 225 4.0 15.0 0.00 0.08 0.11 73 1010.7
20260507133200 57 225 9.0 15.0 0.00 0.08 0.11 72 1010.7
20260507132648 57 248 7.0 14.0 0.00 0.08 0.11 72 1010.4
20260507132139 57 135 6.0 14.0 0.00 0.08 0.11 70 1010.0
20260507131629 57 135 4.0 17.0 0.00 0.08 0.11 70 1009.9
20260507131130 58 203 8.0 17.0 0.00 0.08 0.11 69 1008.9
20260507130110 57 248 6.0 17.0 0.00 0.08 0.11 70 1008.9
20260507125547 57 225 7.0 15.0 0.00 0.08 0.11 72 1008.6
20260507125039 57 225 6.0 15.0 0.00 0.08 0.11 71 1008.6
20260507124527 57 203 7.0 15.0 0.00 0.08 0.11 71 1008.5
20260507122958 58 203 6.0 13.0 0.00 0.08 0.11 72 1008.1
20260507122447 58 113 8.0 22.0 0.00 0.08 0.11 71 1008.0
20260507121937 58 203 8.0 22.0 0.00 0.08 0.11 69 1008.2
20260507120917 58 225 13.0 21.0 0.00 0.08 0.11 67 1007.5
20260507120406 58 203 11.0 20.0 0.00 0.08 0.11 68 1007.5
20260507114837 59 225 7.0 18.0 0.00 0.08 0.11 69 1007.9
20260507113816 59 158 10.0 18.0 0.00 0.08 0.11 69 1007.2
20260507113306 59 203 8.0 18.0 0.00 0.08 0.11 70 1006.7
20260507112755 59 135 8.0 16.0 0.00 0.08 0.11 72 1006.5
20260507112245 58 293 10.0 18.0 0.00 0.08 0.11 72 1005.6
20260507111735 59 203 5.0 18.0 0.00 0.08 0.11 70 1005.6
20260507111226 59 113 10.0 18.0 0.00 0.08 0.11 69 1005.7
20260507110715 59 248 8.0 18.0 0.00 0.08 0.11 71 1005.4
20260507110206 59 158 10.0 18.0 0.00 0.08 0.11 71 1005.3
20260507105657 59 270 9.0 23.0 0.00 0.08 0.11 70 1005.0
20260507105145 60 338 8.0 24.0 0.00 0.08 0.11 70 1004.9
20260507104636 60 203 9.0 24.0 0.00 0.08 0.11 70 1005.0
20260507104123 60 180 9.0 22.0 0.00 0.08 0.11 71 1005.1
20260507103615 60 23 9.0 22.0 0.00 0.08 0.11 71 1005.1
20260507103105 60 135 10.0 23.0 0.00 0.08 0.11 72 1004.9
20260507102557 61 180 8.0 23.0 0.00 0.08 0.11 74 1004.9
20260507102044 61 158 9.0 23.0 0.00 0.08 0.11 76 1005.0
20260507101535 61 225 13.0 22.0 0.00 0.08 0.11 76 1004.8
20260507101023 61 180 10.0 22.0 0.00 0.08 0.11 78 1004.5
20260507100515 62 180 6.0 24.0 0.00 0.08 0.11 79 1004.5
20260507100003 62 180 11.0 25.0 0.00 0.08 0.11 80 1004.7
20260507095454 62 270 11.0 25.0 0.00 0.08 0.11 80 1004.7
20260507094944 62 203 10.0 27.0 0.00 0.08 0.11 81 1004.5
20260507094431 62 135 12.0 27.0 0.00 0.08 0.11 81 1004.7
20260507093412 63 158 8.0 21.0 0.00 0.08 0.11 85 1005.1
20260507092352 64 203 11.0 27.0 0.00 0.08 0.11 87 1005.0
20260507091842 64 180 9.0 27.0 0.00 0.08 0.11 88 1005.1
20260507090824 64 135 11.0 22.0 0.00 0.08 0.11 89 1005.1
20260507090312 64 180 9.0 24.0 0.00 0.08 0.11 89 1004.9
20260507085254 64 203 11.0 31.0 0.00 0.08 0.11 90 1004.6
20260507084232 65 135 8.0 18.0 0.00 0.08 0.11 90 1004.5
20260507082151 64 203 10.0 21.0 0.00 0.08 0.11 91 1004.6
20260507081642 64 203 11.0 17.0 0.00 0.08 0.11 94 1004.6
20260507081131 64 158 9.0 16.0 0.00 0.08 0.11 96 1004.8
20260507080622 63 135 6.0 11.0 0.00 0.08 0.11 97 1004.7
20260507080112 63 113 5.0 9.0 0.00 0.08 0.11 97 1004.7
20260507075600 63 180 4.0 9.0 0.01 0.08 0.11 97 1004.6
20260507075051 63 180 4.0 9.0 0.08 0.08 0.11 97 1004.8
20260507074030 63 203 3.0 6.0 0.08 0.08 0.11 97 1005.1
20260507073520 63 225 2.0 7.0 0.08 0.08 0.11 96 1004.9
20260507073012 63 248 4.0 8.0 0.08 0.08 0.11 96 1005.0
20260507072500 63 248 2.0 9.0 0.08 0.08 0.11 96 1004.7
20260507071949 63 113 4.0 9.0 0.08 0.08 0.11 96 1004.6
20260507071439 63 113 5.0 11.0 0.08 0.08 0.11 96 1004.5
20260507070931 64 158 4.0 11.0 0.08 0.08 0.11 95 1004.7
20260507070427 64 113 6.0 20.0 0.08 0.08 0.11 95 1004.6
20260507065909 65 180 7.0 20.0 0.08 0.08 0.11 94 1004.5
20260507065400 65 180 7.0 11.0 0.07 0.07 0.09 93 1004.7
20260507064846 66 338 4.0 0.0 0.00 0.00 0.01 91 1006.8
20260507064649 66 270 5.0 0.0 0.00 0.00 0.01 91 1007.2
20260507064033 65 135 3.0 14.0 0.00 0.00 0.00 92 1003.0
20260507063012 65 135 6.0 9.0 0.00 0.00 0.00 91 1002.9
20260507062501 65 158 4.0 9.0 0.00 0.00 0.00 91 1003.6
20260507061950 65 203 4.0 9.0 0.00 0.00 0.00 91 1003.8
20260507061442 65 225 4.0 9.0 0.00 0.00 0.00 91 1003.8
20260507060930 65 203 5.0 8.0 0.00 0.00 0.00 91 1003.9
20260507060422 65 225 4.0 11.0 0.00 0.00 0.00 91 1003.3
20260507055910 65 225 4.0 11.0 0.00 0.00 0.00 91 1003.8
20260507055402 65 180 4.0 11.0 0.00 0.00 0.00 91 1003.7
20260507054851 65 248 6.0 11.0 0.00 0.00 0.00 91 1003.4
20260507054340 65 180 4.0 9.0 0.00 0.00 0.00 91 1003.2
20260507053830 65 225 5.0 9.0 0.00 0.00 0.00 91 1003.4
20260507053322 65 225 4.0 11.0 0.00 0.00 0.00 91 1003.4
20260507052810 65 225 4.0 11.0 0.00 0.00 0.00 91 1003.3
20260507051240 66 248 6.0 11.0 0.00 0.00 0.00 92 1003.2
20260507050221 66 248 4.0 11.0 0.00 0.00 0.00 91 1003.2
20260507045711 66 270 6.0 9.0 0.00 0.00 0.00 91 1002.9
20260507045159 66 225 4.0 13.0 0.00 0.00 0.00 92 1002.9
20260507044649 67 158 4.0 13.0 0.00 0.00 0.00 91 1003.1
20260507044139 67 225 5.0 13.0 0.00 0.00 0.00 90 1002.8
20260507043630 67 248 6.0 13.0 0.00 0.00 0.00 89 1002.9
20260507043119 68 225 4.0 13.0 0.00 0.00 0.00 87 1003.1
20260507042608 68 248 3.0 13.0 0.00 0.00 0.00 86 1003.4
20260507042100 68 180 7.0 16.0 0.00 0.00 0.00 86 1003.2
20260507041548 69 203 7.0 16.0 0.00 0.00 0.00 85 1002.8
20260507040528 69 203 7.0 21.0 0.00 0.00 0.00 83 1003.4
20260507040020 70 225 13.0 21.0 0.00 0.00 0.00 83 1003.1
20260507035508 72 180 11.0 21.0 0.00 0.00 0.00 83 1003.3
20260507034958 76 180 8.0 13.0 0.00 0.00 0.00 84 1003.1
20260507034448 76 23 3.0 7.0 0.00 0.00 0.00 87 1002.5
20260507033939 76 338 3.0 7.0 0.00 0.00 0.00 86 1002.6
20260507033429 76 293 4.0 8.0 0.00 0.00 0.00 86 1002.6
20260507032918 76 23 3.0 8.0 0.00 0.00 0.00 87 1002.5
20260507032408 76 315 3.0 4.0 0.00 0.00 0.00 87 1002.7
20260507031858 76 338 3.0 4.0 0.00 0.00 0.00 87 1002.6
20260507031347 75 315 2.0 4.0 0.00 0.00 0.00 88 1002.6
20260507030837 75 293 2.0 4.0 0.00 0.00 0.00 88 1002.6
20260507030327 74 338 2.0 4.0 0.00 0.00 0.00 88 1002.4
20260507025308 74 338 1.0 2.0 0.00 0.00 0.00 88 1002.4
20260507024756 74 293 1.0 4.0 0.00 0.00 0.00 88 1002.4
20260507023736 74 338 0.0 2.0 0.00 0.00 0.00 88 1002.7
20260507023228 74 338 0.0 2.0 0.00 0.00 0.00 88 1002.7
20260507022718 74 338 0.0 2.0 0.00 0.00 0.00 88 1002.6
20260507022206 74 338 1.0 2.0 0.00 0.00 0.00 87 1002.7
20260507021146 75 315 2.0 2.0 0.00 0.00 0.00 86 1003.1
20260507020635 75 225 0.0 0.0 0.00 0.00 0.00 86 1003.0
20260507020139 75 225 0.0 2.0 0.00 0.00 0.00 86 1003.0
20260507015616 75 225 0.0 2.0 0.00 0.00 0.00 86 1003.1
20260507015105 75 225 0.0 2.0 0.00 0.00 0.00 86 1003.4
20260507014557 75 225 2.0 2.0 0.00 0.00 0.00 85 1003.5
20260507014047 76 90 0.0 2.0 0.00 0.00 0.00 85 1003.1
20260507013536 76 90 0.0 2.0 0.00 0.00 0.00 85 1003.2
20260507012005 75 180 0.0 2.0 0.00 0.00 0.00 85 1003.5
20260507011457 75 180 0.0 2.0 0.00 0.00 0.00 85 1003.7
20260507010434 76 203 0.0 4.0 0.00 0.00 0.00 85 1003.9
20260507005924 76 225 2.0 4.0 0.00 0.00 0.00 84 1003.9
20260507005414 76 270 0.0 2.0 0.00 0.00 0.00 84 1003.9
20260507004904 76 293 0.0 2.0 0.00 0.00 0.00 84 1003.7
20260507003845 77 315 0.0 2.0 0.00 0.00 0.00 84 1003.6
20260507003334 77 315 1.0 2.0 0.00 0.00 0.00 83 1003.4
20260507002823 77 315 1.0 2.0 0.00 0.00 0.00 83 1003.2
20260507002315 77 315 0.0 0.0 0.00 0.00 0.00 83 1003.1
20260507001803 77 315 0.0 0.0 0.00 0.00 0.00 83 1003.0
20260507001308 77 315 0.0 0.0 0.00 0.00 0.00 83 1003.1
20260507000744 77 315 0.0 0.0 0.00 0.00 0.00 83 1002.9
20260507000234 77 315 0.0 0.0 0.00 0.00 0.00 82 1002.9
20260506235722 77 315 0.0 2.0 0.00 0.00 0.00 82 1002.9
20260506234703 77 23 0.0 2.0 0.00 0.00 0.00 82 1002.6
20260506234154 77 23 1.0 2.0 0.00 0.00 0.00 82 1002.6
20260506233642 78 338 2.0 2.0 0.00 0.00 0.00 82 1002.5
20260506233133 78 338 1.0 2.0 0.00 0.00 0.00 80 1002.7
20260506232622 78 338 0.0 2.0 0.00 0.00 0.00 80 1002.8
20260506232112 78 338 0.0 2.0 0.00 0.00 0.00 80 1002.8
20260506231052 78 338 0.0 2.0 0.00 0.00 0.00 79 1002.5
20260506230544 79 338 1.0 2.0 0.00 0.00 0.00 79 1002.5
20260506230033 78 315 2.0 2.0 0.00 0.00 0.00 79 1002.4
20260506225011 78 315 1.0 4.0 0.00 0.00 0.00 79 1002.6
20260506224501 79 315 1.0 4.0 0.00 0.00 0.00 79 1002.3
20260506223953 79 0 2.0 4.0 0.00 0.00 0.00 78 1002.3
20260506223443 79 23 1.0 4.0 0.00 0.00 0.00 78 1002.2
20260506222421 80 338 2.0 6.0 0.00 0.00 0.00 77 1002.3
20260506221910 80 338 2.0 7.0 0.00 0.00 0.00 77 1002.0
20260506220852 80 338 3.0 4.0 0.00 0.00 0.00 76 1001.9
20260506215830 81 0 2.0 6.0 0.00 0.00 0.00 75 1002.1
20260506215322 81 338 2.0 6.0 0.00 0.00 0.00 74 1002.1
20260506214810 81 338 3.0 6.0 0.00 0.00 0.00 73 1002.1
20260506214259 82 338 3.0 7.0 0.00 0.00 0.00 73 1002.0
20260506213750 82 23 4.0 7.0 0.00 0.00 0.00 73 1001.9
20260506213241 82 23 4.0 11.0 0.00 0.00 0.00 72 1001.9
20260506212219 83 0 6.0 13.0 0.00 0.00 0.00 70 1001.7
20260506211709 84 315 6.0 13.0 0.00 0.00 0.00 69 1001.6
20260506211201 84 0 8.0 17.0 0.00 0.00 0.00 68 1001.1
20260506210139 85 0 8.0 14.0 0.00 0.00 0.00 67 1001.8
20260506205629 85 0 8.0 13.0 0.00 0.00 0.00 66 1001.9
20260506205118 85 45 7.0 11.0 0.00 0.00 0.00 66 1002.2
20260506204609 85 23 6.0 11.0 0.00 0.00 0.00 67 1002.4
20260506204100 85 23 4.0 11.0 0.00 0.00 0.00 67 1002.6
20260506203548 85 315 6.0 11.0 0.00 0.00 0.00 67 1002.6
20260506203042 85 0 4.0 13.0 0.00 0.00 0.00 67 1002.3
20260506202529 85 68 4.0 13.0 0.00 0.00 0.00 67 1002.5
20260506202018 85 0 3.0 13.0 0.00 0.00 0.00 67 1002.6
20260506200958 86 23 8.0 11.0 0.00 0.00 0.00 66 1002.6
20260506200450 86 315 4.0 15.0 0.00 0.00 0.00 65 1002.5
20260506195939 86 45 4.0 18.0 0.00 0.00 0.00 65 1002.5
20260506195427 86 23 8.0 25.0 0.00 0.00 0.00 65 1002.7
20260506194917 87 338 5.0 25.0 0.00 0.00 0.00 64 1002.6
20260506193859 87 315 10.0 27.0 0.00 0.00 0.00 63 1002.5
20260506193348 87 315 11.0 27.0 0.00 0.00 0.00 62 1002.6
20260506192327 87 338 10.0 22.0 0.00 0.00 0.00 64 1002.6
20260506191817 87 0 12.0 23.0 0.00 0.00 0.00 64 1002.6
20260506191307 87 23 11.0 23.0 0.00 0.00 0.00 64 1002.7
20260506190756 87 338 9.0 22.0 0.00 0.00 0.00 65 1002.5
20260506190246 88 0 8.0 21.0 0.00 0.00 0.00 63 1002.5
20260506185738 87 338 10.0 22.0 0.00 0.00 0.00 63 1003.0
20260506185226 86 338 11.0 22.0 0.00 0.00 0.00 64 1003.0
20260506184716 87 338 7.0 21.0 0.00 0.00 0.00 64 1002.9
20260506184206 87 270 11.0 21.0 0.00 0.00 0.00 64 1003.0
20260506183656 86 23 9.0 23.0 0.00 0.00 0.00 64 1002.9
20260506183150 87 293 8.0 23.0 0.00 0.00 0.00 64 1003.0
20260506182127 87 315 10.0 20.0 0.00 0.00 0.00 64 1003.1
20260506181615 87 0 8.0 20.0 0.00 0.00 0.00 63 1003.3
20260506181118 87 23 11.0 20.0 0.00 0.00 0.00 65 1003.4
20260506180555 86 338 10.0 17.0 0.00 0.00 0.00 64 1003.6
20260506180059 87 270 9.0 22.0 0.00 0.00 0.00 64 1003.5
20260506175536 86 0 7.0 22.0 0.00 0.00 0.00 64 1003.5
20260506175024 86 338 8.0 22.0 0.00 0.00 0.00 64 1003.7
20260506174517 87 23 10.0 18.0 0.00 0.00 0.00 64 1003.7
20260506174006 87 338 9.0 20.0 0.00 0.00 0.00 63 1003.8
20260506173454 87 180 8.0 24.0 0.00 0.00 0.00 65 1003.9
20260506172945 87 338 11.0 24.0 0.00 0.00 0.00 63 1004.0
20260506172434 87 315 13.0 21.0 0.00 0.00 0.00 62 1004.0
20260506171415 87 338 6.0 25.0 0.00 0.00 0.00 63 1004.0
20260506170903 87 0 7.0 24.0 0.00 0.00 0.00 62 1004.1
20260506170353 87 338 11.0 21.0 0.00 0.00 0.00 63 1004.5
20260506165846 87 338 8.0 16.0 0.00 0.00 0.00 63 1004.3
20260506164823 87 0 12.0 21.0 0.00 0.00 0.00 64 1004.7
20260506164315 86 338 13.0 20.0 0.00 0.00 0.00 65 1004.8
20260506163804 87 293 10.0 20.0 0.00 0.00 0.00 64 1004.8
20260506163253 87 0 5.0 18.0 0.00 0.00 0.00 65 1005.2
20260506162745 87 23 6.0 18.0 0.00 0.00 0.00 65 1005.1
20260506161723 86 0 10.0 18.0 0.00 0.00 0.00 67 1005.4
20260506161213 86 0 6.0 17.0 0.00 0.00 0.00 66 1005.5
20260506160703 86 338 5.0 18.0 0.00 0.00 0.00 67 1005.7
20260506160207 85 45 4.0 18.0 0.00 0.00 0.00 67 1005.8
20260506155654 85 315 8.0 16.0 0.00 0.00 0.00 68 1005.9
20260506155132 86 90 10.0 16.0 0.00 0.00 0.00 68 1006.1
20260506154112 85 68 8.0 15.0 0.00 0.00 0.00 69 1006.4
20260506153601 85 0 9.0 15.0 0.00 0.00 0.00 70 1006.4
20260506152542 84 45 8.0 17.0 0.00 0.00 0.00 72 1006.7
20260506151522 84 270 5.0 18.0 0.00 0.00 0.00 72 1006.6
20260506151013 83 0 8.0 18.0 0.00 0.00 0.00 73 1006.8
20260506150501 83 0 6.0 20.0 0.00 0.00 0.00 73 1006.9
20260506145441 83 338 8.0 16.0 0.00 0.00 0.00 75 1007.1
20260506144933 82 293 6.0 22.0 0.00 0.00 0.00 75 1007.1
20260506143910 81 270 11.0 17.0 0.00 0.00 0.00 77 1007.5
20260506142850 81 0 8.0 17.0 0.00 0.00 0.00 79 1007.2
20260506142342 81 338 8.0 15.0 0.00 0.00 0.00 79 1007.4
20260506141829 81 0 5.0 14.0 0.00 0.00 0.00 81 1007.5
20260506141321 80 68 5.0 14.0 0.00 0.00 0.00 82 1007.5
20260506140813 80 338 4.0 16.0 0.00 0.00 0.00 81 1007.5